If you wish to contribute or participate in the discussions about articles you are invited to join SKYbrary as a registered user

 Actions

Angoon Seaplane Base

From SKYbrary Wiki

PAGN
Airport
ICAO: PAGN – IATA: AGN
Summary
Name Angoon Seaplane Base
Region North America
Territory Alaska US.gif
Location Angoon, Alaska
Serving Angoon
Type seaplane base
Coordinates 57° 30' 13.00" N, 134° 35' 6.00" W
Runways
Designator Length Width Surface ROPS
NW/SE 3048 m10,000 ft
274 m898.95 ft
WATER /


METAR
Observation PAGN 061456Z AUTO 00000KT 10SM CLR 09/07 A2976 RMK AO2 SLP065 T00940072 58008
Station Angoon
Date/Time 06 June 2020 14:56:00
Wind direction
Wind speed 00 kts
Lowest cloud amount n/a
Temperature 9.4°C
Dew point 7.2°C
Humidity 86%
QNH hPa
Weather condition n/a

Maps

Terrain

Loading map...

Airport Layout

Loading map...


Accidents & Serious Incidents at or in vicinity of PAGN

None on SKYbrary